Home   Weather   Metz   Past weeks

Flag for France Past Weather in Metz, Lorraine, France — Yesterday and Last 2 Weeks

Now
54 °F

Sunny.


Feels Like: 50 °F
Forecast: 55 / 66 °F
Wind: 10 mph from South

Location: Metz-Nancy-Lorraine

Current Time: Sep 29, 2016 at 8:49:12 AM

Latest Report: Sep 29, 2016 at 8:00 AM


Visibility: 10 mi

Pressure: 30.24 "Hg

Humidity: 88%

Dew Point: 50 °F

Location of MetzLocation

Past Weather in Metz — Graph

°F

Metz Temperature Yesterday

Maximum temperature yesterday: 72 °F (at 12:30 PM)
Minimum temperature yesterday: 52 °F (at 6:30 AM)
Average temperature yesterday: 62 °F

High & Low Weather Summary for the Past Weeks

 TemperatureHumidityPressure
High88 °F (Sep 14, 4:00 PM)100% (Sep 15, 9:30 PM)30.42 "Hg (Sep 15, 9:30 PM)
Low45 °F (Sep 22, 7:30 AM)33% (Sep 24, 1:30 PM)29.80 "Hg (Sep 15, 1:00 AM)
Average61 °F73%30.12 "Hg
* Reported Sep 14 7:00 AM — Sep 29 7:30 AM, Metz, Weather by CustomWeather, © 2016

Note: Actual official high and low records may vary slightly from our data, if they occured in-between our weather recording intervals... More about our weather records

Advertising

Metz Weather History for the Previous 24 Hours

Scroll right to see more
 ConditionsComfort  
Time TempWeatherWind HumidityBarometerVisibility
7:30 AM
Thu, Sep 29
54 °FClear.10 mph88%30.24 "Hg10 mi
7:00 AM54 °FClear.10 mph88%30.24 "Hg10 mi
6:30 AM54 °FClear.9 mph82%30.24 "Hg10 mi
6:00 AM54 °FClear.10 mph82%30.24 "Hg10 mi
5:30 AM54 °FClear.9 mph88%30.27 "Hg10 mi
5:00 AM55 °FClear.10 mph77%30.27 "Hg10 mi
4:30 AM55 °FClear.10 mph82%30.27 "Hg10 mi
4:00 AM57 °FClear.12 mph77%30.27 "Hg10 mi
3:30 AM55 °FClear.10 mph82%30.30 "Hg10 mi
3:00 AM55 °FClear.9 mph82%30.30 "Hg10 mi
2:30 AM55 °FClear.8 mph82%30.30 "Hg10 mi
2:00 AM55 °FClear.10 mph82%30.33 "Hg10 mi
1:30 AM57 °FClear.10 mph77%30.33 "Hg10 mi
1:00 AM59 °FClear.12 mph72%30.33 "Hg10 mi
12:30 AM59 °FClear.10 mph72%30.33 "Hg10 mi
12:00 AM59 °FClear.10 mph72%30.33 "Hg10 mi
11:30 PM
Wed, Sep 28
61 °FClear.10 mph68%30.33 "Hg10 mi
11:00 PM59 °FClear.7 mph72%30.36 "Hg10 mi
10:30 PM61 °FClear.7 mph68%30.36 "Hg10 mi
10:00 PM61 °FClear.8 mph68%30.36 "Hg10 mi
9:30 PM61 °FClear.8 mph68%30.36 "Hg10 mi
9:00 PM63 °FClear.9 mph64%30.36 "Hg10 mi
8:30 PM63 °FClear.8 mph64%30.36 "Hg10 mi
8:00 PM64 °FClear.6 mph64%30.36 "Hg10 mi
7:30 PM68 °FClear.7 mph56%30.36 "Hg10 mi
7:00 PM70 °FSunny.7 mph53%30.36 "Hg10 mi
6:30 PM72 °FSunny.12 mph53%30.36 "Hg10 mi
6:00 PM72 °FPassing clouds.13 mph53%30.36 "HgN/A
5:30 PM72 °FPartly sunny.12 mph53%30.36 "HgN/A
5:00 PM72 °FPartly sunny.14 mph53%30.36 "HgN/A
4:30 PM72 °FOvercast.13 mph53%30.36 "HgN/A
4:00 PM72 °FOvercast.12 mph53%30.36 "HgN/A
3:30 PM72 °FOvercast.13 mph53%30.36 "HgN/A
3:00 PM72 °FOvercast.13 mph53%30.39 "HgN/A
2:30 PM70 °FOvercast.12 mph57%30.39 "HgN/A
2:00 PM70 °FOvercast.14 mph53%30.39 "HgN/A
1:30 PM70 °FOvercast.12 mph50%30.39 "HgN/A
1:00 PM70 °FOvercast.13 mph50%30.39 "HgN/A
12:30 PM72 °FPartly sunny.13 mph44%30.39 "HgN/A
12:00 PM70 °FPassing clouds.13 mph43%30.39 "HgN/A
11:30 AM66 °FPassing clouds.9 mph49%30.42 "HgN/A
11:00 AM64 °FPassing clouds.10 mph52%30.42 "HgN/A
10:30 AM63 °FPassing clouds.9 mph59%30.42 "HgN/A
10:00 AM61 °FPassing clouds.9 mph63%30.39 "HgN/A
9:30 AM59 °FSunny.9 mph68%30.39 "Hg10 mi
9:00 AM57 °FSunny.8 mph72%30.39 "Hg10 mi
8:30 AM54 °FSunny.8 mph82%30.39 "Hg10 mi
8:00 AM52 °FSunny.9 mph88%30.39 "Hg10 mi
Weather by CustomWeather, © 2016

See weather overviewHow to use our weather pages